Regional Weather Roundup
Issued by NWS Green Bay, WI

Home | Current Version | Previous Version | Text Only | Print | Product List | Glossary On
Versions: 1 2 3 4 5 6 7 8 9 10 11 12 13 14 15 16 17 18 19 20 21 22 23 24 25 26 27 28 29 30 31 32 33 34 35 36 37 38 39 40 41 42 43 44 45 46 47 48 49 50
000
ASUS43 KGRB 310511
RWRGRB

NORTH-CENTRAL AND NORTHEAST WISCONSIN REGIONAL WEATHER ROUNDUP
NATIONAL WEATHER SERVICE GREEN BAY WI
1200 AM CDT MON AUG 31 2015

WIZ005-009-010>012-018-019-310600-
NORTH CENTRAL WISCONSIN

CITY           SKY/WX    TMP DP  RH WIND       PRES   REMARKS
IRONWOOD       CLEAR     68  64  88 SW12      29.90R
MANITOWISH WTR MOCLDY    63  63 100 S3        29.98R
ARBOR VITAE    CLEAR     63  62  96 SW3       29.99R
EAGLE RIVER    CLEAR     64  63  98 SW5       29.99R
LAND O LAKES   CLEAR     64  62  95 SW3       29.99S
RHINELANDER    CLEAR     64  62  93 SW7       30.00S
PHILLIPS       CLEAR     62  62 100 S3        29.98S
ANTIGO           N/A     61  61 100 CALM      30.01S FOG
TOMAHAWK       FOG       60  58  96 CALM      30.00R VSB 3/4
MERRILL        FOG       57  57 100 CALM      30.00S VSB 1/2
$$

WIZ013-073-310600-
NORTHEAST WISCONSIN

CITY           SKY/WX    TMP DP  RH WIND       PRES   REMARKS
IRON MOUNTAIN  CLEAR     63  61  93 CALM      29.95S
MARINETTE      CLEAR     64  61  88 SW6       29.96S
OCONTO         CLEAR     63  63 100 CALM      29.98R
$$

WIZ017-030-035>037-045-310600-
CENTRAL WISCONSIN

CITY           SKY/WX    TMP DP  RH WIND       PRES   REMARKS
MEDFORD        CLEAR     59  59 100 SW3       30.00S FOG
WAUSAU         CLEAR     65  62  90 CALM      29.99R
MOSINEE        CLEAR     61  61 100 SW3       30.01S FOG
MARSHFIELD     FOG       62  59  90 SW5       30.00S VSB 1/4
WISC RAPIDS    FOG       61  59  93 CALM      30.01S VSB 1/2
STEVENS POINT  CLEAR     62  61  99 SW3       30.01R
WAUPACA        FOG       62  61  97 CALM      30.01R VSB 1/4
SHAWANO        CLEAR     66  64  93 CALM      29.99R
CLINTONVILLE   CLEAR     61  59  94 S3        29.99S
WAUTOMA        FOG       59  59 100 CALM      30.01S VSB 1/2
$$

WIZ038-039-048-051-310600-
FOX VALLEY

CITY           SKY/WX    TMP DP  RH WIND       PRES   REMARKS
NWS GREEN BAY  CLEAR     62  61  96 S5        30.00R FOG
APPLETON       CLEAR     61  61 100 S7        30.00R
OSHKOSH        CLEAR     60  58  92 S5        30.01R FOG
FOND DU LAC    CLEAR     61  60  97 S5        30.02R
$$

WIZ022-050-052-310600-
EAST CENTRAL WISCONSIN

CITY           SKY/WX    TMP DP  RH WIND       PRES   REMARKS
EPHRAIM        FAIR      65  63  93 SW5       29.98R
STURGEON BAY   CLEAR     63  59  88 S6        30.01R
MANITOWOC      CLEAR     62  61  96 MISG      30.01S FOG
SHEBOYGAN      CLEAR     58  57  97 S3        30.02S FOG
$$

LMZ563-521-522-541>543-310600-
LAKESHORE

STATION/POSITION TIME  TEMP    WIND        PRES    VSBY  WAVE
                       AIR SEA DIR/SP/G                  HT/PER
                 (UTC) (F)     (DEG/KT/KT) (MB)    (MI)  (FT/S)
SHEBOYGAN LKSHOR 0500   62     210/  7/  7 1016.6S
NORTHPORT PIER   0401   63     150/  3/  7 1014.9R
N MID LAKE BUOY  0450   64 65  210/ 16/ 17 1014.6R         3/ 5
CHAMBERS ISLAND  0400   64     190/  5/ 12 1014.9R
$$


USA.gov is the U.S. government's official web portal to all federal, state and local government web resources and services.